TimeCST,TemperatureF,Dew PointF,Humidity,Sea Level PressureIn,VisibilityMPH,Wind Direction,Wind SpeedMPH,Gust SpeedMPH,PrecipitationIn,Events,Conditions,WindDirDegrees,DateUTC
12:56 AM,21.0,19.0,92,29.88,4.0,South,17.3,-,N/A,,Overcast,180,2013-02-17 06:56:00
1:56 AM,21.9,19.9,92,29.86,4.0,South,13.8,-,N/A,,Overcast,180,2013-02-17 07:56:00
2:56 AM,21.9,19.9,92,29.83,5.0,South,17.3,-,N/A,,Overcast,180,2013-02-17 08:56:00
3:56 AM,21.0,19.0,92,29.81,8.0,South,12.7,-,N/A,,Mostly Cloudy,190,2013-02-17 09:56:00
4:07 AM,21.2,19.4,93,29.72,10.0,South,15.0,-,N/A,,Scattered Clouds,180,2013-02-17 10:07:00
4:56 AM,21.9,19.9,92,29.75,10.0,South,18.4,-,N/A,,Clear,180,2013-02-17 10:56:00
5:56 AM,21.0,19.0,92,29.73,10.0,South,17.3,-,N/A,,Scattered Clouds,170,2013-02-17 11:56:00
6:56 AM,21.0,19.0,92,29.70,10.0,South,16.1,-,N/A,,Overcast,180,2013-02-17 12:56:00
7:56 AM,21.0,19.0,92,29.65,10.0,South,17.3,-,N/A,,Mostly Cloudy,170,2013-02-17 13:56:00
8:56 AM,21.9,19.0,89,29.63,10.0,South,19.6,-,N/A,,Mostly Cloudy,170,2013-02-17 14:56:00
9:56 AM,24.1,21.0,88,29.62,10.0,South,18.4,-,N/A,,Overcast,180,2013-02-17 15:56:00
10:56 AM,25.0,21.0,85,29.59,10.0,South,17.3,-,N/A,,Clear,180,2013-02-17 16:56:00
11:56 AM,28.0,23.0,81,29.59,10.0,SSW,11.5,-,N/A,,Partly Cloudy,200,2013-02-17 17:56:00
12:56 PM,30.9,25.0,79,29.55,10.0,South,12.7,-,N/A,,Clear,190,2013-02-17 18:56:00
1:56 PM,33.1,27.0,78,29.50,10.0,South,15.0,-,N/A,,Clear,190,2013-02-17 19:56:00
2:56 PM,32.0,26.1,79,29.50,10.0,South,12.7,-,N/A,,Scattered Clouds,170,2013-02-17 20:56:00
3:56 PM,30.0,25.0,82,29.50,10.0,South,10.4,-,N/A,,Mostly Cloudy,170,2013-02-17 21:56:00
4:56 PM,28.9,25.0,85,29.50,10.0,South,11.5,-,N/A,,Overcast,180,2013-02-17 22:56:00
5:56 PM,28.9,25.0,85,29.52,10.0,South,5.8,-,N/A,,Overcast,180,2013-02-17 23:56:00
6:56 PM,27.0,24.1,89,29.54,10.0,SSW,5.8,-,N/A,,Overcast,200,2013-02-18 00:56:00
7:56 PM,28.0,24.1,85,29.54,10.0,West,3.5,-,N/A,,Mostly Cloudy,270,2013-02-18 01:56:00
8:56 PM,32.0,28.0,85,29.54,10.0,WNW,4.6,-,N/A,,Mostly Cloudy,290,2013-02-18 02:56:00
9:52 PM,35.6,30.2,81,29.48,10.0,West,9.2,-,0.00,Rain,Light Rain,280,2013-02-18 03:52:00
9:56 PM,35.1,30.9,85,29.54,10.0,WNW,9.2,-,0.00,Rain,Light Rain,290,2013-02-18 03:56:00
10:06 PM,35.6,30.2,81,29.48,10.0,West,6.9,-,0.01,Rain,Light Rain,280,2013-02-18 04:06:00
10:32 PM,33.8,32.0,93,29.48,10.0,WNW,4.6,-,0.01,Rain,Light Rain,290,2013-02-18 04:32:00
10:56 PM,34.0,32.0,92,29.53,6.0,West,4.6,-,0.01,Snow,Light Snow,280,2013-02-18 04:56:00
11:40 PM,33.8,32.0,93,29.47,6.0,WSW,6.9,-,0.02,Snow,Light Snow,250,2013-02-18 05:40:00
11:52 PM,33.8,32.0,93,29.47,8.0,WSW,6.9,-,0.02,,Overcast,240,2013-02-18 05:52:00
11:56 PM,34.0,32.0,92,29.52,8.0,West,8.1,-,0.02,,Overcast,260,2013-02-18 05:56:00